Flag for France Weather past 2 weeks in Besançon, France

Now
72 °F

Clear.


Feels Like: 75 °F
Forecast: 51 / 71 °F
Wind: 8 mph from North

Location: Dole Tavaux

Current Time: Oct 1, 2014 at 2:17:41 PM

Latest Report: Oct 1, 2014 at 2:00 PM


Visibility: N/A

Pressure: 30.33 "Hg

Humidity: 65%

Dew point: 59 °F

Location of BesançonLocation

Historic Weather in Besançon — Graph

°F

Besançon temperature yesterday

Maximum temperature yesterday: 72 °F (at 2:00 PM)
Minimum temperature yesterday: 57 °F (at 12:00 AM)
Average temperature yesterday: 64 °F

Past Weeks' High & Low Weather Summary

 TemperatureHumidityPressure
High81 °F (Sep 17, 4:30 PM)100% (Sep 19, 2:00 AM)30.33 "Hg (Sep 19, 2:00 AM)
Low43 °F (Sep 26, 7:30 AM)42% (Sep 16, 5:30 PM)29.80 "Hg (Sep 17, 3:30 PM)
Average61 °F80%30.10 "Hg
* Reported Sep 16 1:00 PM — Oct 1 1:00 PM, Besançon, Weather by CustomWeather, © 2014

Note: Actual official high and low records may vary slightly from our data, if they occured in-between our weather recording intervals... More about our weather records

Advertising

Besançon weather history for previous 24 hours

 ConditionsComfort  
Time TempWeatherWind HumidityBarometerVisibility
1:00 PM
Oct 1
68 °FClear.5 mph73%30.33 "HgN/A
12:30 PM66 °FClear.5 mph78%30.33 "HgN/A
12:00 PM64 °FClear.3 mph83%30.33 "HgN/A
11:30 AM61 °FPassing clouds.2 mph94%30.33 "HgN/A
11:00 AM57 °FLow clouds.2 mph100%30.33 "Hg6 mi
10:30 AM57 °FFog.3 mph94%30.33 "Hg1 mi
10:00 AM55 °FFog.5 mph94%30.33 "Hg1 mi
9:30 AM54 °FFog.3 mph100%30.33 "Hg0 mi
9:00 AM54 °FFog.2 mph100%30.33 "Hg0 mi
8:30 AM54 °FFog.2 mph94%30.30 "Hg0 mi
8:00 AM52 °FFog.No wind100%30.30 "Hg2 mi
7:30 AM52 °FLow clouds.No wind94%30.30 "Hg4 mi
7:00 AM52 °FPassing clouds.1 mph100%30.30 "Hg6 mi
6:30 AM52 °FFog.1 mph100%30.30 "Hg0 mi
6:00 AM54 °FFog.2 mph94%30.30 "Hg1 mi
5:30 AM52 °FPassing clouds.1 mph100%30.30 "Hg1 mi
4:30 AM54 °FPassing clouds.3 mph94%30.30 "Hg4 mi
4:00 AM54 °FFog.3 mph94%30.30 "Hg0 mi
3:30 AM55 °FFog.3 mph94%30.30 "Hg0 mi
3:00 AM54 °FFog.1 mph100%30.30 "Hg0 mi
2:30 AM55 °FFog.No wind100%30.30 "Hg0 mi
2:00 AM57 °FFog.2 mph94%30.30 "Hg0 mi
1:30 AM57 °FLight fog.2 mph94%30.30 "Hg1 mi
1:00 AM57 °FFog.2 mph94%30.30 "Hg2 mi
12:30 AM57 °FClear.3 mph94%30.30 "HgN/A
12:00 AM57 °FClear.3 mph94%30.30 "Hg4 mi
11:30 PM
Sep 30
57 °FClear.3 mph94%30.30 "HgN/A
11:00 PM57 °FClear.3 mph94%30.30 "HgN/A
10:30 PM61 °FClear.2 mph94%30.30 "HgN/A
10:00 PM61 °FClear.No wind94%30.30 "HgN/A
9:30 PM61 °FClear.No wind88%30.30 "HgN/A
9:00 PM63 °FClear.2 mph88%30.30 "HgN/A
8:30 PM64 °FClear.1 mph83%30.30 "HgN/A
8:00 PM64 °FClear.1 mph83%30.27 "HgN/A
7:30 PM66 °FClear.2 mph78%30.27 "HgN/A
7:00 PM70 °FClear.3 mph73%30.27 "HgN/A
6:30 PM70 °FClear.5 mph73%30.27 "HgN/A
6:00 PM72 °FClear.2 mph65%30.27 "HgN/A
5:30 PM72 °FClear.2 mph65%30.27 "HgN/A
5:00 PM72 °FClear.5 mph69%30.27 "HgN/A
4:30 PM72 °FOvercast.6 mph65%30.27 "HgN/A
4:00 PM72 °FPartly sunny.5 mph69%30.30 "HgN/A
3:30 PM72 °FCloudy.3 mph65%30.30 "HgN/A
3:00 PM72 °FMostly cloudy.5 mph65%30.30 "HgN/A
2:30 PM72 °FMostly cloudy.8 mph65%30.30 "HgN/A
2:00 PM72 °FMostly cloudy.8 mph69%30.30 "HgN/A
Weather by CustomWeather, © 2014

See weather overviewHow to use our weather pages